Simultaneous Nadir Overpasses (SNOs) Predictions

Prediction of SNOs between GOES-16 and NPP Satellite Orbit:

Table of predicted SNOs for the next 14.0 days since TLE Epoch: 6/29/2024
Index Date Time (GOES-16) GOES-16 Lat,Lon NPP Lat,Lon Distance(km) Time Diff (sec)
1 06/29/2024 06:32:11 0.04, -75.20 0.28, -76.44 140.11 80
2 06/30/2024 06:10:47 0.03, -75.21 -0.70, -71.91 375.86 80
3 07/01/2024 18:35:25 -0.03, -75.21 -0.50, -77.22 229.08 80
4 07/02/2024 18:14:03 -0.02, -75.22 0.56, -72.70 287.03 80
5 07/04/2024 06:38:33 0.02, -75.23 0.62, -77.98 313.42 80
6 07/05/2024 06:17:10 0.01, -75.24 -0.38, -73.46 202.97 80
7 07/06/2024 18:41:48 -0.01, -75.25 -0.81, -78.77 401.08 80
8 07/07/2024 18:20:26 -0.00, -75.27 0.25, -74.25 116.02 80
9 07/09/2024 06:44:55 0.01, -75.29 0.96, -79.53 482.61 80
10 07/10/2024 06:23:31 0.00, -75.31 -0.04, -75.00 35.17 80
11 07/12/2024 18:29:26 -0.01, -75.36 -0.12, -75.79 49.01 80
